Location: Waco, TX
(31.5480°N, 97.1670°W)
Time: 00:51:01
(UTC-06:00)

ISS - Pass Details

Date: 14 January 2018
Orbit: 402 x 407 km, 51.6° (Epoch: 21 January)

Event Time Altitude Azimuth Distance (km) Brightness Sun altitude
Rises 21:58:49 0° 196° (SSW) 2,295 - -53.1°
Reaches altitude 10° 22:01:11 10° 180° (S) 1,441 - -53.6°
Maximum altitude 22:03:43 21° 128° (SE) 948 - -54.1°
Drops below altitude 10° 22:06:17 10° 76° (ENE) 1,449 - -54.7°
Sets 22:08:39 0° 60° (ENE) 2,312 - -55.2°
